User: anonymous   Login
Location: Black Creek
(40.9000°S, 175.5500°E)
Time: 20:14:35
(UTC+00:00)
Language:

USA 215 - Orbit

View from above orbital plane
View from above orbital plane
View from above satellite
View from above satellite

Ground track
Ground track

The orbit data is extracted from the following two-line orbital elements,

1 37162U 10046A   24269.15777010 0.00000000  00000-0  00000-0 0    04
2 37162 122.9901 141.1049 0005797  81.3032 278.6968 13.41442160    02
Epoch (UTC): 25 September 2024 03:47:11
Eccentricity: 0.0005797
inclination: 122.9901°
perigee height: 1099 km
apogee height: 1108 km
right ascension of ascending node: 141.1049°
argument of perigee: 81.3032°
revolutions per day: 13.41442160
mean anomaly at epoch: 278.6968°
orbit number at epoch: 0

The dashed part of the orbit path shows where the satellite is in the earth's shadow,  

DLR